Wind_Speed
27 28 28 29 28 27 25 25 25 27 29 31 33 35 35 34 33 33 34 35 37 39 40 41 40 39 39 39 39 40 41 42 43 44 44 46 48 51 53 56 59 61 63
28 28 28 28 28 28 27 26 27 29 31 32 33 33 33 32 33 34 36 38 40 41 42 41 41 41 41 42 42 43 44 45 48 50 51 52 53 56 59 62 64 66 68
28 28 28 29 29 28 28 28 28 30 32 32 32 32 32 33 35 36 38 40 41 41 41 42 42 42 43 44 45 46 48 50 52 56 59 62 64 65 65 67 68 70 71
28 27 28 28 29 28 28 28 29 30 31 31 31 32 33 35 37 39 40 41 41 41 41 42 42 43 44 45 47 50 53 55 58 61 65 69 73 75 74 72 73 74 75
28 27 27 28 28 28 28 29 30 30 31 32 33 34 36 38 39 40 40 40 40 41 41 41 42 43 45 48 51 55 58 62 65 68 71 72 74 76 79 78 79 79 80
28 27 27 27 27 28 28 29 30 31 32 34 35 37 38 39 39 40 40 40 40 40 41 42 43 46 49 53 56 60 64 67 70 72 74 76 78 80 81 82 83 83 83
27 28 27 27 27 28 29 30 31 33 34 36 37 38 39 39 40 40 40 40 40 41 42 44 47 51 55 58 61 65 68 70 73 75 77 78 80 83 85 87 88 88 87
27 27 27 27 28 29 30 31 33 34 35 37 37 38 38 39 39 39 40 40 41 43 45 49 53 56 60 63 66 68 71 73 75 77 79 80 82 85 87 90 93 94 94
26 26 27 28 29 30 31 32 34 35 36 36 37 37 38 38 38 39 40 41 44 47 50 54 57 60 63 66 69 72 74 76 77 79 81 83 85 87 90 93 97 101 104
25 26 27 28 29 30 32 33 34 34 35 36 37 37 37 38 38 40 42 44 48 51 55 58 61 65 68 71 73 74 76 77 79 81 83 85 88 91 95 98 101 105 108
26 27 28 28 29 31 32 32 33 34 35 36 37 37 37 38 40 42 45 49 52 55 59 62 66 69 72 74 75 75 76 78 80 83 87 90 94 97 100 103 104 105 105
27 28 28 29 30 32 32 33 33 34 35 36 37 37 38 40 43 46 49 53 56 60 63 67 70 73 74 74 74 75 77 80 84 88 92 96 99 102 103 104 103 101 99
27 28 29 30 31 32 33 33 34 35 36 37 37 39 41 43 46 50 53 56 60 64 68 71 72 73 72 73 74 77 81 85 90 94 98 101 103 103 102 99 96 94 92
27 28 30 31 32 33 33 34 34 35 37 38 39 41 44 47 49 53 56 61 65 68 70 71 71 71 72 74 78 82 86 91 95 99 102 103 102 99 96 92 89 87 86
28 29 30 32 33 34 34 35 36 37 38 40 41 44 46 49 53 57 61 65 68 69 69 69 69 71 75 79 84 88 93 97 100 102 102 100 95 90 87 85 83 83 82
29 30 32 33 34 35 36 36 37 38 40 42 44 46 49 53 56 61 64 67 68 67 66 68 71 75 80 85 90 95 98 101 103 102 98 92 86 82 79 79 79 79 80
30 32 33 34 35 35 36 37 38 40 42 44 46 49 52 56 60 64 66 66 65 65 67 70 75 80 85 90 95 99 102 103 102 97 90 83 78 77 76 76 76 75 74
32 33 33 34 34 35 36 38 39 41 43 45 48 52 56 60 63 64 64 63 63 66 70 75 80 85 90 95 99 102 103 100 94 87 81 77 75 75 77 76 74 71 65
32 32 33 33 34 36 37 39 40 42 44 47 51 55 59 62 62 62 61 63 66 70 75 80 85 89 94 99 102 104 101 93 85 79 76 76 76 76 76 74 69 61 55
30 31 32 33 35 36 38 39 41 43 47 50 54 58 60 61 60 60 62 65 70 75 80 84 89 94 98 101 103 101 95 87 81 76 74 74 74 72 69 65 58 51 45
29 31 33 34 35 36 38 40 43 46 50 54 57 58 58 58 59 62 65 70 74 79 84 88 93 97 101 102 99 93 87 82 79 76 74 71 68 64 58 52 47 43 40
30 31 32 33 35 37 39 42 45 49 53 55 56 56 57 58 61 64 69 74 79 84 88 92 96 99 100 98 91 84 80 79 78 75 70 64 59 53 47 43 40 37 34
29 30 32 34 36 38 41 44 48 51 54 54 54 55 57 60 64 69 74 79 83 88 92 96 98 99 96 90 84 79 77 76 74 68 62 56 49 43 39 36 33 30 28
29 31 33 35 38 41 44 47 50 51 52 52 53 55 59 63 68 73 78 83 87 92 96 98 99 96 90 84 80 78 75 71 65 58 52 46 41 36 33 30 28 26 26
31 33 35 37 40 43 46 48 49 50 50 52 54 58 62 66 71 77 82 86 91 95 98 98 97 93 85 80 79 77 71 64 57 51 44 38 33 29 27 24 23 23 22
33 34 36 39 42 45 46 47 47 49 50 53 57 61 66 71 75 80 84 89 93 95 97 95 91 85 81 79 75 69 61 55 50 43 37 31 28 24 20 19 19 19 19
Wind_Direction
240 244 246 247 248 249 253 259 266 273 279 284 288 290 291 292 291 291 291 292 294 295 296 298 298 298 298 298 298 297 297 296 296 295 295 295 295 294 294 293 293 293 293
240 243 246 248 249 250 255 261 269 276 282 286 288 289 289 289 290 291 293 295 296 297 298 299 300 301 301 301 301 301 301 301 300 298 296 294 293 292 293 293 292 292 292
240 244 247 248 249 251 256 264 272 279 284 286 286 286 287 288 290 292 294 295 296 297 299 300 301 302 303 303 304 303 302 301 299 298 297 296 294 292 292 292 292 292 292
240 245 248 249 250 253 258 266 274 280 283 283 283 285 286 288 291 293 295 296 298 299 300 301 302 303 304 303 302 301 300 299 298 298 298 298 297 296 295 294 294 294 294
241 246 249 250 251 254 261 268 275 279 280 281 282 284 287 289 292 294 296 297 299 300 301 302 302 302 301 301 301 301 300 300 299 299 299 298 298 297 297 296 296 296 296
242 247 249 250 252 256 263 269 274 277 279 281 283 286 288 291 293 295 297 299 300 300 300 300 300 300 300 300 301 301 301 301 300 300 300 300 300 299 299 298 297 297 297
243 247 250 251 254 259 264 269 272 276 279 282 284 287 289 292 294 296 298 298 299 298 298 299 299 300 301 301 302 302 302 302 302 302 302 302 302 301 301 300 300 299 299
245 248 251 253 257 261 265 269 273 277 280 283 285 288 290 292 294 296 296 297 297 297 298 299 300 301 302 303 303 304 303 303 303 304 304 304 304 304 303 303 302 301 301
247 249 252 255 259 262 266 271 274 278 281 284 286 288 290 292 293 294 295 295 296 297 299 301 302 304 304 305 305 305 305 306 306 306 306 306 306 305 305 305 304 304 303
249 252 255 258 261 265 268 272 276 280 282 284 285 287 290 292 293 294 295 296 298 300 302 304 305 306 307 307 307 308 308 308 308 308 308 308 307 307 306 306 305 304 303
251 254 258 261 264 267 271 275 278 281 283 284 286 288 291 292 294 295 297 299 301 303 305 307 308 309 309 310 310 310 310 310 310 310 309 309 309 308 307 306 306 305 304
253 256 260 264 267 270 274 277 280 282 284 286 288 290 292 294 296 298 300 303 305 307 308 310 311 311 311 311 311 312 312 312 312 311 311 310 309 309 308 307 306 305 304
255 259 263 267 270 274 277 280 283 284 286 288 290 292 295 297 299 301 304 306 308 310 311 312 313 313 313 313 313 313 313 313 313 312 312 311 310 309 308 307 306 305 305
259 263 268 271 275 278 281 283 285 287 288 290 292 295 297 299 302 304 306 309 310 312 313 314 314 314 314 315 315 315 314 314 314 313 313 312 311 309 308 307 307 306 307
266 270 273 277 279 281 283 285 287 288 290 292 295 297 299 302 304 307 309 311 312 313 314 315 315 316 316 316 315 315 315 315 314 314 313 312 311 309 308 308 308 308 309
271 274 277 279 281 282 283 285 286 288 291 294 297 299 302 304 306 309 311 312 313 314 315 315 316 316 316 316 316 316 316 316 315 314 313 312 310 309 309 309 309 309 310
274 276 277 278 279 281 283 284 287 290 293 296 299 301 304 306 309 311 312 312 313 314 315 316 316 317 317 317 317 317 317 317 316 315 314 312 311 310 310 309 309 309 309
273 274 276 277 279 281 283 286 289 292 295 298 301 303 306 308 310 311 312 313 314 315 316 316 317 317 317 317 317 317 318 318 317 316 314 313 313 312 311 310 310 310 310
271 274 276 278 280 283 286 288 292 295 298 300 303 306 308 309 310 311 312 313 314 315 316 317 317 317 318 318 319 319 319 318 317 316 315 315 314 313 312 311 311 312 312
273 275 277 280 283 286 289 292 294 297 300 303 305 307 308 309 311 311 312 313 315 316 316 317 318 318 319 320 320 320 319 318 317 317 316 316 315 314 313 312 313 314 315
275 278 280 283 286 289 291 294 297 299 302 304 306 308 309 310 311 312 313 314 315 316 317 318 319 320 321 321 321 320 319 319 319 319 319 318 316 315 315 314 315 317 319
278 281 284 286 288 291 293 296 299 301 304 306 307 308 309 310 311 313 314 315 316 317 318 319 320 321 322 322 321 320 320 320 320 320 320 319 318 318 318 317 318 320 323
281 283 286 288 290 293 295 298 301 304 305 307 308 309 310 311 313 314 315 316 317 318 319 320 321 322 323 322 321 320 320 320 320 321 321 321 321 321 320 321 323 326 329
283 285 288 290 293 295 298 301 303 305 306 307 308 309 311 313 314 315 317 317 318 319 320 322 323 323 323 322 321 321 321 321 321 321 322 323 323 324 325 327 330 333 335
286 288 290 293 296 299 302 304 305 306 307 308 309 310 312 314 315 317 318 319 320 321 322 323 324 324 324 323 323 324 324 324 324 325 326 326 327 328 330 333 336 339 342
290 292 294 297 299 302 304 305 305 306 307 308 310 312 313 315 316 317 318 320 321 322 323 324 324 324 324 325 325 326 326 326 326 327 329 331 332 335 338 341 343 346 351
Height
5766 5768 5770 5772 5775 5777 5779 5780 5780 5781 5781 5780 5779 5777 5776 5774 5772 5770 5768 5765 5763 5760 5758 5755 5751 5747 5744 5740 5737 5733 5729 5725 5722 5719 5717 5714 5710 5706 5702 5697 5693 5689 5684
5761 5763 5765 5768 5770 5772 5774 5775 5775 5776 5775 5774 5773 5771 5769 5767 5766 5763 5761 5758 5756 5753 5750 5746 5742 5739 5735 5731 5727 5723 5719 5715 5710 5706 5703 5702 5700 5695 5690 5684 5678 5673 5668
5756 5758 5761 5763 5765 5767 5769 5770 5770 5770 5769 5768 5766 5765 5763 5761 5759 5757 5754 5751 5748 5745 5741 5737 5733 5729 5725 5721 5716 5712 5708 5704 5699 5693 5687 5683 5680 5678 5677 5670 5663 5656 5650
5750 5753 5755 5758 5760 5762 5763 5764 5764 5764 5763 5761 5760 5758 5756 5754 5752 5749 5746 5743 5740 5736 5732 5729 5724 5720 5716 5711 5707 5702 5697 5692 5687 5681 5674 5666 5659 5653 5651 5649 5643 5636 5629
5745 5747 5750 5752 5755 5757 5758 5758 5758 5757 5756 5755 5753 5751 5749 5747 5744 5741 5738 5735 5732 5728 5723 5719 5715 5711 5706 5702 5696 5691 5685 5678 5671 5665 5658 5652 5644 5635 5628 5625 5620 5613 5606
5740 5742 5744 5747 5749 5751 5752 5752 5751 5751 5749 5748 5746 5744 5742 5739 5736 5733 5730 5726 5723 5719 5715 5711 5706 5702 5697 5691 5685 5678 5671 5664 5656 5648 5640 5632 5624 5615 5607 5601 5597 5591 5584
5734 5737 5739 5742 5744 5745 5746 5745 5745 5744 5743 5741 5739 5736 5734 5731 5728 5725 5721 5718 5714 5710 5706 5702 5697 5691 5685 5679 5672 5664 5656 5648 5640 5631 5622 5613 5603 5594 5584 5575 5569 5565 5561
5729 5731 5734 5736 5738 5739 5739 5739 5738 5738 5736 5734 5731 5729 5726 5723 5720 5717 5713 5709 5705 5701 5696 5691 5685 5679 5672 5664 5657 5649 5641 5632 5623 5614 5604 5594 5584 5573 5562 5551 5540 5534 5532
5723 5726 5728 5730 5731 5732 5733 5732 5732 5731 5729 5726 5724 5721 5718 5715 5712 5708 5704 5700 5696 5691 5685 5679 5672 5665 5658 5650 5642 5633 5624 5615 5605 5595 5585 5575 5564 5553 5540 5527 5513 5499 5492
5718 5720 5722 5724 5725 5726 5726 5725 5725 5723 5721 5719 5716 5713 5710 5707 5703 5699 5695 5691 5685 5680 5673 5666 5659 5651 5643 5634 5626 5616 5606 5597 5586 5576 5566 5555 5543 5531 5517 5503 5488 5471 5455
5713 5715 5717 5718 5718 5719 5719 5718 5717 5716 5713 5711 5708 5705 5702 5698 5694 5690 5685 5680 5674 5667 5660 5652 5644 5635 5626 5617 5608 5599 5589 5579 5568 5557 5545 5533 5519 5506 5492 5477 5461 5445 5426
5708 5710 5711 5712 5712 5712 5712 5711 5710 5708 5705 5702 5699 5696 5693 5689 5685 5680 5674 5668 5661 5654 5646 5637 5628 5619 5609 5600 5591 5582 5571 5560 5549 5536 5523 5509 5494 5480 5464 5448 5432 5417 5401
5702 5704 5705 5705 5705 5705 5704 5703 5702 5699 5696 5694 5691 5687 5683 5679 5674 5669 5662 5656 5648 5640 5631 5621 5612 5602 5593 5583 5574 5564 5553 5541 5528 5513 5499 5484 5467 5452 5436 5420 5405 5390 5377
5697 5698 5698 5698 5698 5697 5696 5695 5693 5690 5688 5685 5682 5678 5674 5669 5663 5657 5650 5642 5634 5625 5616 5606 5596 5586 5576 5566 5556 5546 5534 5521 5506 5490 5474 5457 5439 5423 5408 5394 5381 5367 5355
5691 5691 5692 5691 5691 5690 5688 5687 5685 5682 5679 5676 5672 5668 5663 5658 5652 5645 5637 5629 5620 5610 5600 5591 5581 5570 5560 5549 5537 5526 5513 5498 5483 5466 5449 5431 5414 5398 5384 5370 5358 5346 5333
5684 5685 5685 5684 5683 5682 5680 5679 5676 5673 5670 5667 5663 5658 5653 5646 5640 5632 5624 5615 5605 5596 5586 5576 5566 5555 5543 5530 5517 5503 5490 5474 5457 5442 5426 5409 5393 5379 5366 5353 5340 5327 5313
5678 5678 5677 5676 5675 5674 5672 5670 5668 5665 5662 5658 5653 5647 5641 5634 5627 5619 5610 5601 5592 5582 5573 5562 5551 5539 5525 5511 5496 5481 5467 5450 5432 5415 5401 5387 5374 5359 5347 5336 5325 5313 5299
5670 5670 5669 5668 5668 5666 5664 5662 5659 5656 5652 5647 5642 5636 5629 5622 5614 5605 5597 5588 5578 5569 5558 5547 5535 5521 5506 5490 5475 5459 5443 5426 5409 5393 5379 5366 5355 5341 5327 5315 5305 5295 5283
5662 5662 5662 5661 5660 5658 5656 5654 5650 5646 5642 5637 5631 5624 5617 5609 5601 5592 5583 5574 5565 5555 5543 5531 5517 5504 5488 5470 5452 5434 5419 5404 5390 5376 5362 5347 5334 5322 5307 5295 5285 5277 5269
5655 5655 5655 5654 5652 5650 5648 5645 5641 5636 5631 5625 5619 5612 5604 5596 5588 5579 5570 5561 5551 5540 5527 5514 5499 5484 5468 5449 5430 5410 5395 5383 5372 5360 5347 5332 5316 5303 5290 5279 5270 5263 5257
5649 5648 5647 5646 5644 5641 5638 5635 5631 5626 5620 5614 5607 5600 5592 5584 5575 5567 5557 5547 5536 5525 5512 5498 5482 5464 5446 5428 5410 5391 5374 5360 5349 5339 5327 5314 5300 5287 5276 5266 5259 5252 5247
5642 5641 5639 5637 5635 5632 5629 5625 5620 5615 5609 5602 5595 5588 5580 5572 5563 5553 5543 5531 5519 5507 5492 5478 5463 5444 5426 5407 5391 5375 5359 5343 5329 5319 5308 5296 5285 5274 5265 5258 5251 5246 5240
5634 5633 5631 5629 5626 5623 5619 5615 5609 5603 5597 5590 5583 5576 5568 5559 5550 5539 5528 5515 5501 5487 5473 5457 5442 5426 5408 5389 5373 5359 5345 5330 5316 5303 5292 5282 5273 5265 5258 5252 5246 5240 5235
5627 5625 5623 5620 5617 5613 5608 5604 5598 5592 5586 5579 5572 5564 5556 5547 5536 5524 5512 5498 5483 5469 5453 5436 5421 5406 5389 5372 5357 5343 5330 5317 5304 5293 5283 5274 5266 5258 5252 5247 5241 5236 5232
5618 5616 5614 5610 5606 5602 5598 5593 5587 5581 5575 5568 5560 5552 5543 5533 5522 5510 5495 5481 5465 5447 5431 5415 5399 5383 5371 5355 5338 5323 5311 5299 5289 5280 5273 5266 5260 5254 5249 5244 5239 5235 5230
5609 5607 5604 5600 5596 5592 5587 5582 5576 5570 5563 5556 5548 5539 5530 5519 5508 5496 5483 5465 5448 5431 5413 5395 5379 5365 5351 5337 5324 5311 5299 5288 5279 5271 5265 5260 5255 5250 5246 5242 5238 5234 5230